Cross City, FL

7:31 PM EST on December 15, 2019 (GMT -0500)
Cross City

Weather History for KCTY - October, 2019

Change the Weather History Date:

Saturday, October 19, 2019

  Actual Average Record
Temperature  
Mean Temperature 75 °F 69 °F  
Max Temperature 84 °F 82 °F 91 °F (2018)
Min Temperature 65 °F 57 °F 46 °F (2002)
Degree Days  
Heating Degree Days 0    
Month to date heating degree days 2  
Since 1 July heating degree days 2  
Cooling Degree Days 10    
Month to date cooling degree days 215  
Year to date cooling degree days 2972  
Growing Degree Days 24 (Base 50)    
Moisture  
Dew Point 72 °F    
Average Humidity 93    
Maximum Humidity 99    
Minimum Humidity 78    
Precipitation  
Precipitation 0.79 in 0.09 in 0.17 in (2007)
Month to date precipitation 1.95 2.34  
Year to date precipitation 49.42 42.17  
Sea Level Pressure  
Sea Level Pressure 29.75 in    
Wind  
Wind Speed 11 mph (SSE)    
Max Wind Speed 21 mph    
Max Gust Speed 29 mph    
Visibility 8 miles    
Events Rain    
T = Trace of Precipitation, MM = Missing Value Source: NWS Daily Summary

Daily Weather History Graph

Daily Weather History Graph

Search for Another Location

Airport or City:

Astronomy

Oct. 19, 2019 Rise Set
Actual Time 7:36 AM EDT 6:57 PM EDT
Civil Twilight 7:12 AM EDT 7:21 PM EDT
Nautical Twilight 6:44 AM EDT 7:49 PM EDT
Astronomical Twilight 6:16 AM EDT 8:17 PM EDT
Moon 11:23 PM EDT (10/19) 12:49 PM EDT (10/19)
Length of Visible Light 12h 09m
Length of Day
11h 21m
Waning Gibbous, 70% of the Moon is Illuminated
Oct 19
Waning Gibbous
Oct 21
Last Quarter
Oct 27
New
Nov 4
First Quarter
Nov 12
Full

Hourly Weather History & Observations

Time (EDT) Temp. Heat Index Dew Point Humidity Pressure Visibility Wind Dir Wind Speed Gust Speed Precip Events Conditions
12:15 AM 64.8 °F - 63.7 °F 96% 29.87 in 3.5 mi ESE 6.9 mph - 0.03 in Rain Heavy Rain
12:35 AM 64.6 °F - 63.7 °F 97% 29.87 in 3.0 mi East 6.9 mph - 0.10 in Rain Heavy Rain
12:55 AM 64.8 °F - 63.9 °F 97% 29.86 in 4.0 mi ESE 6.9 mph - 0.14 in Rain Rain
1:15 AM 64.9 °F - 64.2 °F 98% 29.85 in 5.0 mi ESE 8.1 mph - 0.10 in Rain Rain
1:35 AM 65.3 °F - 64.6 °F 98% 29.84 in 5.0 mi East 5.8 mph - 0.13 in Rain Light Rain
1:55 AM 65.8 °F - 65.3 °F 98% 29.83 in 5.0 mi East 6.9 mph - 0.15 in Rain Rain
2:15 AM 66.6 °F - 66.0 °F 98% 29.83 in 4.0 mi East 8.1 mph - 0.03 in Rain Rain
2:35 AM 67.3 °F - 66.9 °F 99% 29.82 in 5.0 mi East 6.9 mph - 0.06 in Rain Rain
2:55 AM 68.0 °F - 67.5 °F 98% 29.83 in 4.0 mi ESE 8.1 mph - 0.10 in Rain Rain
3:15 AM 68.5 °F - 68.2 °F 99% 29.81 in 3.5 mi ESE 6.9 mph - 0.06 in Rain Rain
3:35 AM 69.3 °F - 68.7 °F 98% 29.82 in 10.0 mi SE 6.9 mph - 0.08 in Rain Light Rain
3:55 AM 69.8 °F - 69.3 °F 98% 29.81 in 3.0 mi ESE 5.8 mph - 0.14 in Rain Heavy Rain
4:15 AM 70.0 °F - 69.4 °F 98% 29.79 in 1.5 mi SE 9.2 mph 17.3 mph 0.13 in Rain Heavy Rain
4:35 AM 70.5 °F - 69.8 °F 98% 29.79 in 5.0 mi ESE 8.1 mph - 0.18 in Rain Light Rain
4:55 AM 70.7 °F - 70.2 °F 98% 29.79 in 10.0 mi ESE 8.1 mph 17.3 mph 0.22 in Rain Light Rain
5:35 AM 70.9 °F - 70.0 °F 97% 29.78 in 10.0 mi ESE 8.1 mph - N/A   Unknown
5:55 AM 71.6 °F - 69.8 °F 94% 29.77 in 10.0 mi East 10.4 mph - N/A   Unknown
6:15 AM 71.6 °F - 69.8 °F 94% 29.75 in 10.0 mi East 10.4 mph - N/A   Unknown
6:35 AM 71.6 °F - 70.2 °F 95% 29.77 in 10.0 mi East 9.2 mph - N/A   Unknown
6:55 AM 71.6 °F - 69.6 °F 93% 29.79 in 10.0 mi ESE 9.2 mph 17.3 mph N/A   Unknown
7:15 AM 71.4 °F - 69.8 °F 95% 29.77 in 10.0 mi ESE 12.7 mph 16.1 mph N/A   Unknown
7:35 AM 71.6 °F - 70.2 °F 95% 29.78 in 10.0 mi ESE 11.5 mph 19.6 mph N/A   Unknown
7:55 AM 71.6 °F - 69.8 °F 94% 29.78 in 5.0 mi ESE 10.4 mph 18.4 mph N/A Rain Light Rain
8:15 AM 71.6 °F - 70.5 °F 96% 29.77 in 10.0 mi ESE 10.4 mph 18.4 mph 0.01 in   Unknown
8:35 AM 72.1 °F - 71.1 °F 96% 29.78 in 10.0 mi ESE 9.2 mph 17.3 mph 0.01 in   Unknown
8:55 AM 72.3 °F - 71.1 °F 96% 29.77 in 7.0 mi ESE 8.1 mph 20.7 mph 0.01 in Rain Rain
9:15 AM 72.1 °F - 71.2 °F 97% 29.77 in 7.0 mi ESE 11.5 mph - 0.03 in Rain Light Rain
9:35 AM 72.3 °F - 71.4 °F 97% 29.77 in 7.0 mi ESE 11.5 mph - 0.03 in Rain Light Rain
9:55 AM 72.7 °F - 71.6 °F 96% 29.77 in 10.0 mi ESE 12.7 mph 17.3 mph 0.04 in Rain Light Rain
10:15 AM 73.0 °F - 71.6 °F 95% 29.78 in 10.0 mi ESE 9.2 mph - N/A   Unknown
10:35 AM 73.9 °F - 72.0 °F 93% 29.77 in 10.0 mi SE 9.2 mph 21.9 mph N/A   Unknown
10:55 AM 74.7 °F - 71.8 °F 91% 29.77 in 10.0 mi SE 10.4 mph 18.4 mph N/A   Unknown
11:15 AM 75.4 °F - 72.1 °F 90% 29.76 in 10.0 mi SE 10.4 mph 19.6 mph N/A   Unknown
11:35 AM 75.7 °F - 72.0 °F 88% 29.76 in 10.0 mi SE 13.8 mph 19.6 mph N/A   Unknown
11:55 AM 76.1 °F - 72.0 °F 87% 29.75 in 10.0 mi SSE 12.7 mph 19.6 mph N/A   Unknown
12:15 PM 76.6 °F - 72.1 °F 86% 29.75 in 10.0 mi SSE 12.7 mph 21.9 mph N/A   Unknown
12:35 PM 77.5 °F - 72.5 °F 84% 29.73 in 10.0 mi SSE 16.1 mph 28.8 mph N/A   Unknown
12:55 PM 78.8 °F - 73.4 °F 83% 29.72 in 10.0 mi SSE 20.7 mph 27.6 mph N/A   Unknown
1:15 PM 80.8 °F 85.9 °F 74.1 °F 80% 29.72 in 10.0 mi SSE 13.8 mph 23.0 mph N/A   Unknown
1:35 PM 78.4 °F - 73.8 °F 85% 29.70 in 10.0 mi SSE 17.3 mph 24.2 mph N/A Rain Light Rain
1:55 PM 78.6 °F - 73.8 °F 85% 29.69 in 10.0 mi SSE 16.1 mph 21.9 mph N/A   Unknown
2:15 PM 76.1 °F - 74.3 °F 94% 29.68 in 5.0 mi SSE 10.4 mph 19.6 mph 0.03 in Rain Rain
2:35 PM 77.2 °F - 75.2 °F 94% 29.67 in 10.0 mi SSE 15.0 mph 23.0 mph 0.03 in   Unknown
2:55 PM 79.5 °F - 76.1 °F 89% 29.67 in 10.0 mi SSE 13.8 mph 18.4 mph 0.03 in   Unknown
3:15 PM 81.3 °F 88.0 °F 76.1 °F 84% 29.66 in 10.0 mi SSE 16.1 mph 27.6 mph N/A   Unknown
3:35 PM 80.2 °F 86.0 °F 76.5 °F 88% 29.66 in 5.0 mi SSE 12.7 mph 19.6 mph 0.01 in   Mist
3:55 PM 80.6 °F 86.8 °F 76.3 °F 87% 29.65 in 10.0 mi South 18.4 mph - 0.01 in   Unknown
4:15 PM 83.3 °F 92.1 °F 76.6 °F 80% 29.65 in 10.0 mi South 15.0 mph 23.0 mph N/A   Unknown
4:35 PM 83.3 °F 91.4 °F 75.9 °F 78% 29.65 in 10.0 mi South 18.4 mph - N/A   Unknown
4:55 PM 82.0 °F 89.1 °F 75.7 °F 81% 29.64 in 10.0 mi South 16.1 mph 23.0 mph N/A   Unknown
5:15 PM 81.3 °F 87.6 °F 75.4 °F 82% 29.64 in 10.0 mi South 16.1 mph 26.5 mph N/A   Unknown
5:35 PM 78.6 °F - 76.3 °F 92% 29.65 in 7.0 mi SW 9.2 mph 18.4 mph 0.03 in Rain Light Rain
5:55 PM 78.4 °F - 76.5 °F 94% 29.65 in 7.0 mi SSW 11.5 mph 17.3 mph 0.03 in   Unknown
6:15 PM 78.3 °F - 76.5 °F 94% 29.65 in 10.0 mi South 10.4 mph - 0.01 in   Unknown
6:35 PM 77.9 °F - 76.3 °F 95% 29.66 in 7.0 mi SSW 10.4 mph - 0.01 in   Unknown
6:55 PM 77.5 °F - 75.6 °F 94% 29.68 in 10.0 mi SW 10.4 mph 23.0 mph 0.01 in Rain Light Rain
7:15 PM 76.8 °F - 75.2 °F 95% 29.68 in 10.0 mi SSW 10.4 mph 17.3 mph N/A   Unknown
7:35 PM 76.5 °F - 74.5 °F 94% 29.69 in 5.0 mi SW 16.1 mph 19.6 mph N/A Rain Rain
7:55 PM 75.9 °F - 74.7 °F 96% 29.70 in 10.0 mi SSW 9.2 mph - N/A   Unknown
8:15 PM 75.7 °F - 74.7 °F 96% 29.71 in 10.0 mi SSW 8.1 mph - N/A   Unknown
8:35 PM 75.7 °F - 73.9 °F 94% 29.72 in 10.0 mi SSW 6.9 mph - N/A   Unknown
8:55 PM 75.2 °F - 73.6 °F 95% 29.74 in 7.0 mi SW 11.5 mph - N/A Rain Light Rain
9:15 PM 74.8 °F - 73.2 °F 95% 29.74 in 10.0 mi SW 9.2 mph - 0.01 in   Unknown
9:35 PM 74.7 °F - 73.2 °F 95% 29.75 in 10.0 mi SSW 9.2 mph - 0.01 in   Unknown
9:55 PM 74.3 °F - 73.0 °F 96% 29.75 in 10.0 mi SW 8.1 mph - 0.01 in   Unknown
10:15 PM 74.8 °F - 73.0 °F 94% 29.75 in 10.0 mi WSW 8.1 mph - N/A   Unknown
10:35 PM 75.0 °F - 73.0 °F 94% 29.76 in 10.0 mi SW 9.2 mph - N/A   Unknown
10:55 PM 74.8 °F - 72.9 °F 94% 29.77 in 10.0 mi SW 9.2 mph - N/A   Unknown
11:15 PM 74.7 °F - 72.5 °F 93% 29.77 in 10.0 mi WSW 9.2 mph - N/A   Unknown
11:35 PM 74.3 °F - 72.3 °F 94% 29.77 in - WSW 9.2 mph - N/A   Unknown
11:55 PM 73.4 °F - 71.6 °F 94% 29.77 in 10.0 mi WSW 10.4 mph - N/A   Unknown